Prescott, AZ

6:38 PM MST on October 19, 2019 (GMT -0700)
Love

Weather History for KPRC - August, 2019

Change the Weather History Date:

Friday, August 2, 2019

  Actual Average Record
Temperature  
Mean Temperature 80 °F 75 °F  
Max Temperature 93 °F 88 °F 99 °F (1993)
Min Temperature 66 °F 62 °F 53 °F (1976)
Degree Days  
Heating Degree Days 0    
Month to date heating degree days 0  
Since 1 July heating degree days 0  
Cooling Degree Days 15    
Month to date cooling degree days 27  
Year to date cooling degree days 595  
Growing Degree Days 28 (Base 50)    
Moisture  
Dew Point 54 °F    
Average Humidity 46    
Maximum Humidity 70    
Minimum Humidity 24    
Precipitation  
Precipitation 0.01 in 0.09 in 1.87 in (2005)
Month to date precipitation 0.01 0.17  
Year to date precipitation 7.82 7.21  
Sea Level Pressure  
Sea Level Pressure 29.97 in    
Wind  
Wind Speed 6 mph (WSW)    
Max Wind Speed 22 mph    
Max Gust Speed 28 mph    
Visibility 10 miles    
Events Rain , Thunderstorm    
T = Trace of Precipitation, MM = Missing Value Source: NWS Daily Summary

Daily Weather History Graph

Daily Weather History Graph

Search for Another Location

Airport or City:

Astronomy

Aug. 02, 2019 Rise Set
Actual Time 5:40 AM MST 7:30 PM MST
Civil Twilight 5:12 AM MST 7:58 PM MST
Nautical Twilight 4:39 AM MST 8:31 PM MST
Astronomical Twilight 4:03 AM MST 9:07 PM MST
Moon 7:21 AM MST (8/2) 9:06 PM MST (8/2)
Length of Visible Light 14h 45m
Length of Day
13h 50m
Waxing Crescent, 4% of the Moon is Illuminated
Aug 2
Waxing Crescent
Aug 7
First Quarter
Aug 15
Full
Aug 23
Last Quarter
Aug 30
New

Hourly Weather History & Observations

Time (MST) Temp. Heat Index Dew Point Humidity Pressure Visibility Wind Dir Wind Speed Gust Speed Precip Events Conditions
12:53 AM 69.1 °F - 55.9 °F 63% 29.92 in 10.0 mi SSW 4.6 mph - N/A   Clear
1:53 AM 66.0 °F - 55.9 °F 70% 29.92 in 10.0 mi NW 4.6 mph - N/A   Clear
2:53 AM 66.9 °F - 55.9 °F 68% 29.91 in 10.0 mi Calm Calm - N/A   Clear
3:53 AM 66.9 °F - 55.0 °F 66% 29.92 in 10.0 mi SSW 4.6 mph - N/A   Clear
4:53 AM 66.9 °F - 55.0 °F 66% 29.92 in 10.0 mi SSW 8.1 mph - N/A   Clear
5:53 AM 66.0 °F - 54.0 °F 65% 29.95 in 10.0 mi SSW 4.6 mph - N/A   Clear
6:53 AM 68.0 °F - 55.0 °F 63% 29.96 in 10.0 mi Calm Calm - N/A   Clear
7:53 AM 77.0 °F - 55.9 °F 48% 29.96 in 10.0 mi North 3.5 mph - N/A   Clear
8:53 AM 81.0 °F 80.8 °F 55.9 °F 42% 29.95 in 10.0 mi NNW 5.8 mph - N/A   Clear
9:53 AM 84.9 °F 83.2 °F 53.1 °F 33% 29.95 in 10.0 mi Variable 3.5 mph - N/A   Clear
10:53 AM 88.0 °F - 51.1 °F 28% 29.94 in 10.0 mi Variable 3.5 mph - N/A   Clear
11:53 AM 89.1 °F - 48.0 °F 24% 29.93 in 10.0 mi Variable 3.5 mph - N/A   Clear
12:53 PM 91.9 °F - 50.0 °F 24% 29.91 in 10.0 mi South 5.8 mph - N/A   Scattered Clouds
1:00 PM 91.0 °F - 50.0 °F 24% 30.19 in 10.0 mi Calm Calm - N/A Thunderstorm Clear
1:53 PM 90.0 °F 87.5 °F 53.1 °F 28% 29.91 in 10.0 mi SW 12.7 mph - N/A Thunderstorm Scattered Clouds
2:53 PM 86.0 °F 84.2 °F 54.0 °F 33% 29.90 in 10.0 mi SW 12.7 mph - N/A   Mostly Cloudy
3:19 PM 84.2 °F 83.0 °F 55.4 °F 37% 30.16 in 10.0 mi SW 10.4 mph - N/A Thunderstorm Mostly Cloudy
3:53 PM 82.9 °F 82.0 °F 55.0 °F 38% 29.90 in 10.0 mi SSW 8.1 mph - N/A   Mostly Cloudy
4:53 PM 91.0 °F - 52.0 °F 26% 29.86 in 10.0 mi Variable 3.5 mph - N/A   Mostly Cloudy
5:42 PM 91.9 °F - 48.9 °F 23% 30.13 in 10.0 mi NW 11.5 mph - N/A Thunderstorm Mostly Cloudy
5:53 PM 88.0 °F - 50.0 °F 27% 29.87 in 10.0 mi NE 19.6 mph 25.3 mph N/A Thunderstorm Thunderstorm
6:46 PM 80.1 °F 79.9 °F 53.1 °F 39% 30.17 in 10.0 mi SE 19.6 mph 28.8 mph N/A Thunderstorm Thunderstorm
6:53 PM 80.1 °F - 48.9 °F 34% 29.93 in 10.0 mi ESE 15.0 mph 28.8 mph N/A Thunderstorm Thunderstorm
7:53 PM 75.0 °F - 55.0 °F 50% 29.92 in 10.0 mi SSE 9.2 mph - 0.00 in Rain , Thunderstorm Light Thunderstorms and Rain
8:53 PM 75.0 °F - 54.0 °F 48% 29.96 in 10.0 mi NNE 5.8 mph - 0.00 in Thunderstorm Thunderstorm
9:53 PM 71.1 °F - 60.1 °F 68% 29.98 in 9.0 mi NNW 6.9 mph - 0.00 in Rain , Thunderstorm Light Thunderstorms and Rain
10:06 PM 71.1 °F - 60.1 °F 68% 30.23 in 10.0 mi NW 6.9 mph - 0.00 in Rain Light Rain
10:53 PM 70.0 °F - 59.0 °F 68% 29.94 in 9.0 mi WNW 9.2 mph - 0.01 in Rain Light Rain
11:53 PM 69.1 °F - 61.0 °F 75% 29.94 in 10.0 mi Calm Calm - 0.00 in   Clear